sat.trackr.live / text

‹ back to catalog

STARLINK-36568

NORAD 68017 · 2026-040C

PAYLOAD ACTIVE UNKNOWN

§ Identity

Operator
Country
US
Launch date
2026-03-01
Launch site
AFWTR
Launch vehicle
Mass (kg)
RCS (m²)

Purposes: comms

External: N2YO · Heavens-Above · Gunter

§ Orbital elements

Epoch: 2026-09-20T02:34:13.039104Z

Period
93.91 min
Inclination
97.2865°
Eccentricity
0.0001850
Mean motion
15.33448992 rev/d
Perigee alt
464.3 km
Apogee alt
466.8 km
Semi-major
6,843.7 km
B*
4.7858e-4
RAAN
210.3921°
Arg perigee
96.3494°
Mean anomaly
263.7959°
Rev number
3,125

§ Raw data

STARLINK-365681 68017U 26040C   26263.10709536  .00015409  00000+0  47858-3 0  99972 68017  97.2865 210.3921 0001850  96.3494 263.7959 15.33448992 31258

JSON: /api/v1/satellites/68017 · /tle

For live sub-satellite position, see the globe view (requires WebGL).

§ Visibility from observer

Set your observer location to see the next 7 days of passes ≥ 10°. The values pass through the URL so the page stays shareable.

No JS? Fill the form by hand. The geolocation button needs JavaScript.